Torna al catalogo

STARLINK-3725

AttivoComunicazioniVLEO
NORAD 52123·PAYLOAD·🇺🇸 United States

Lanciato Mar 19, 2022 da Cape Canaveral Space Force Station

Loading…

Prossimi Passaggi (prossime 24 ore)

TLE

AggiornatoSource: CelesTrak SupGP

Epoca: Sep 14, 2026, 13:42 UTC

1 52123C 22029AM  26257.57131944  .00044896  00000+0  12849-2 0  2577
2 52123  53.1592 297.3084 0001108  79.3122 313.2759 15.35366320    12

Traccia STARLINK-3725 in tempo reale con AllMySat

Download on the App Store